Wind_Speed
9 8 9 9 9 10 11 11 11 12 14 14 14 14 14 15 16 16 16 15 14 13 12 11 10 9 6 3 2 7 12 15 13 12 12 10 10 7 4 5 9 3 3 10 18 25 19
11 11 11 12 12 12 11 11 11 12 12 13 14 15 16 17 18 18 15 13 13 12 11 11 10 8 6 2 2 7 12 14 13 11 8 9 6 7 5 4 2 6 14 16 16 16 12
11 12 12 13 13 13 13 13 12 12 12 13 14 15 16 18 21 19 17 14 12 11 10 11 10 9 6 3 4 7 11 14 12 9 6 7 7 7 7 5 6 11 5 7 3 8 5
12 12 13 14 15 15 15 15 15 15 16 15 15 15 17 18 20 18 17 16 15 11 10 9 8 6 2 3 5 6 11 10 11 6 5 4 5 8 3 8 7 5 3 5 4 7 4
10 12 13 13 15 16 17 16 16 15 15 15 16 17 17 18 19 17 16 18 12 9 6 5 4 3 1 1 6 10 12 9 7 5 7 5 6 2 4 3 5 5 4 7 8 6 4
11 11 12 14 15 16 17 17 17 18 17 16 15 15 17 18 19 15 16 15 9 6 3 5 2 3 2 3 9 12 9 8 6 8 1 1 1 2 3 4 3 5 6 6 9 5 6
9 11 12 13 14 15 17 18 18 17 16 16 16 16 17 17 17 15 15 8 6 2 9 5 7 7 10 6 13 4 6 8 4 3 2 3 3 4 8 6 5 6 5 10 13 11 8
13 12 14 14 15 16 16 16 17 17 17 17 17 16 15 17 16 13 14 6 7 7 9 5 5 9 8 7 4 3 3 4 3 3 4 5 3 4 3 6 6 7 8 12 10 6 8
16 14 15 16 18 17 16 15 16 17 18 18 18 17 16 14 12 12 12 11 9 8 2 5 2 5 3 3 3 3 3 3 2 2 2 3 4 6 4 4 6 4 5 5 9 7 7
16 15 16 15 17 17 17 18 17 16 16 17 18 18 16 13 5 11 6 10 8 7 4 3 1 1 2 2 2 2 2 2 2 3 4 5 4 3 4 5 3 5 1 3 7 10 6
21 19 17 19 24 18 19 20 20 17 16 17 18 20 19 14 11 8 7 8 7 4 4 2 1 2 2 2 6 2 3 1 2 3 4 5 2 2 3 4 1 8 4 6 6 10 9
17 17 16 19 15 15 17 21 22 19 16 17 17 20 20 17 13 6 7 6 3 4 5 1 3 1 2 2 1 2 2 2 2 2 2 7 4 3 4 2 1 6 5 2 1 1 3
11 13 16 20 19 19 20 18 14 14 16 18 17 18 19 17 12 10 7 4 4 4 2 2 1 2 2 2 2 2 2 4 1 5 5 6 3 2 3 2 4 2 4 4 5 2 5
7 7 9 11 14 15 19 20 20 19 16 17 20 20 18 16 9 7 4 3 2 3 4 3 1 2 3 2 3 2 1 4 2 3 2 2 8 4 4 5 5 2 2 3 4 3 5
5 6 7 8 11 12 13 14 18 22 24 20 23 22 17 13 8 4 1 1 6 5 2 5 4 2 3 1 2 1 4 2 4 7 2 2 6 2 4 3 6 1 2 3 4 3 3
7 7 6 8 9 11 12 13 14 12 13 14 14 15 14 8 4 4 3 5 4 3 1 1 2 1 1 3 3 1 2 3 2 7 2 2 6 3 2 2 4 3 3 2 1 4 5
9 8 7 7 8 9 10 12 14 9 7 7 6 5 3 2 2 3 3 5 5 6 2 3 2 3 2 2 2 2 4 3 3 3 6 2 4 5 2 5 5 2 3 4 3 2 3
8 9 9 9 9 8 9 11 12 9 5 2 3 2 3 3 1 1 2 3 6 4 2 1 2 4 3 1 3 3 4 4 3 6 3 3 2 5 11 5 5 4 6 6 4 4 4
7 11 13 14 15 14 10 9 10 10 3 2 4 5 6 6 1 2 5 4 5 4 3 1 3 5 3 2 3 4 3 3 3 2 2 3 1 5 10 4 1 3 4 5 2 1 9
8 9 11 12 14 14 14 13 10 7 4 4 4 3 2 5 5 1 1 4 4 6 5 5 3 2 2 3 4 4 2 3 2 5 6 4 3 7 8 14 4 12 8 5 4 3 6
8 8 8 8 10 11 9 11 11 7 4 4 3 4 3 2 4 8 5 2 3 4 2 3 2 3 2 3 3 5 4 4 8 6 4 3 5 5 11 18 16 17 18 14 11 14 7
13 11 7 7 9 12 9 10 10 9 5 3 2 4 3 4 5 4 5 3 4 5 3 4 2 5 2 4 6 12 10 1 6 1 3 2 5 3 12 10 3 12 16 13 9 7 11
16 13 12 10 10 10 8 8 8 8 7 4 5 11 6 6 4 3 5 6 3 5 6 9 6 8 6 8 12 22 25 21 16 9 6 4 3 3 7 6 13 6 5 5 4 5 5
17 15 12 12 11 11 7 11 9 6 11 9 8 7 3 4 4 3 10 10 9 10 6 16 21 6 9 28 28 21 22 26 25 21 16 5 5 3 5 7 4 5 2 4 5 8 8
11 15 14 14 13 12 13 14 11 8 11 13 11 8 3 3 6 11 15 11 14 16 10 10 20 19 24 9 4 7 5 5 2 1 6 10 5 2 2 2 9 5 1 3 3 6 6
12 14 16 17 17 15 12 11 10 10 10 11 12 11 8 4 7 19 11 13 9 10 11 17 32 14 13 5 3 5 4 2 5 1 6 5 3 4 2 2 5 3 1 2 2 4 4
12 13 13 13 12 12 11 12 12 10 9 11 12 11 13 10 17 20 9 7 4 5 4 7 9 8 6 2 4 4 6 5 4 4 5 4 2 10 6 4 9 8 3 4 1 4 3
9 6 7 8 8 8 7 8 9 11 12 12 14 12 15 15 22 25 23 15 20 14 3 10 11 4 1 3 3 4 4 6 4 4 7 8 8 4 4 4 8 6 4 4 2 3 4
8 8 8 9 10 10 11 12 14 15 16 16 18 18 16 20 21 25 18 17 30 38 30 18 11 12 3 2 2 3 3 2 4 4 1 2 7 6 10 7 5 7 8 9 8 7 4
Wind_Direction
25 23 21 16 10 3 1 1 356 353 352 351 352 351 351 348 344 338 331 327 325 321 317 314 313 321 345 307 290 0 7 2 2 6 19 17 25 10 355 324 324 235 302 313 303 304 295
15 9 6 4 359 354 353 354 352 350 352 349 349 350 348 345 344 339 337 334 329 324 317 313 311 317 326 289 307 356 1 353 356 7 16 19 359 338 294 282 319 309 301 294 300 308 311
18 10 9 5 1 353 349 349 347 345 347 348 349 349 348 346 346 343 339 337 330 322 313 307 305 309 300 249 298 339 348 347 348 355 6 20 358 345 327 296 301 283 304 306 9 354 305
22 19 17 12 7 2 357 355 353 347 345 348 347 347 345 346 346 344 339 335 328 319 311 305 301 303 281 246 286 332 340 344 339 340 336 347 343 316 254 306 317 327 31 352 297 340 294
8 12 13 8 8 7 5 359 353 348 346 348 345 342 343 344 345 344 339 333 331 332 327 325 293 297 291 260 317 326 331 331 336 345 312 294 303 299 320 360 351 7 305 295 317 217 263
349 352 353 356 356 358 357 358 356 352 345 343 343 340 340 342 343 345 344 337 330 336 332 330 303 313 256 302 318 315 316 324 330 326 290 347 340 24 8 60 268 283 296 269 275 279 276
323 327 336 341 346 348 349 349 354 353 348 341 338 337 336 339 341 342 352 339 346 323 317 271 282 279 299 305 304 309 311 325 323 317 12 2 39 254 272 233 256 278 265 271 274 276 290
304 307 315 324 327 330 335 343 344 344 347 345 341 336 337 337 338 344 353 28 29 329 316 298 271 277 294 300 304 325 323 342 340 304 325 11 244 238 257 267 268 279 283 285 286 289 301
278 287 300 305 309 313 317 328 335 338 343 348 346 340 336 339 335 344 1 17 6 345 304 302 271 296 307 304 292 317 328 331 271 296 309 200 246 325 277 294 302 269 236 288 285 326 261
273 280 278 283 289 295 304 308 315 324 333 340 344 345 339 341 324 341 350 348 345 334 51 278 353 312 304 302 288 281 290 347 313 293 319 236 284 287 302 280 211 289 317 304 310 326 318
279 280 269 268 276 274 289 295 297 307 317 327 337 340 346 340 329 328 328 332 333 321 19 246 260 285 271 267 314 223 259 157 238 290 62 265 261 283 282 241 162 250 337 279 289 298 309
284 286 274 275 276 274 276 288 293 291 299 306 327 338 335 334 323 316 320 328 337 39 258 185 162 271 334 195 257 292 263 262 249 308 213 252 286 231 225 94 297 300 305 338 171 217 271
289 286 275 276 276 270 278 284 291 290 286 292 311 325 326 327 317 310 310 327 32 146 307 186 219 170 204 256 261 170 314 306 172 18 354 314 234 241 202 306 1 336 15 342 355 358 235
314 310 305 303 302 294 280 271 273 273 278 285 294 307 314 313 299 290 304 30 125 260 268 345 342 310 219 214 222 179 325 304 219 120 41 18 327 186 173 202 195 271 100 144 283 290 281
321 331 335 327 323 318 315 302 281 272 272 281 289 298 299 300 289 255 111 48 213 198 309 346 333 28 314 274 231 322 197 224 233 179 146 338 266 280 202 171 148 225 256 193 260 220 271
291 305 322 334 339 342 338 335 329 298 295 294 299 304 294 281 252 206 92 252 258 215 331 21 275 70 292 294 325 15 264 196 253 196 188 255 299 247 308 154 226 169 291 270 262 293 302
264 273 289 303 324 341 350 351 348 341 335 312 322 309 288 260 201 183 188 248 287 270 206 160 243 289 260 286 301 275 266 264 196 155 185 166 163 279 319 202 196 136 257 219 277 231 278
265 259 267 277 297 308 330 343 355 354 353 325 296 298 314 191 305 319 223 233 309 285 257 209 159 220 224 287 264 264 245 240 192 162 189 227 199 276 254 233 211 183 218 188 255 262 250
271 266 267 274 277 281 292 310 338 359 313 278 262 261 259 200 199 260 289 290 288 301 268 236 251 211 169 234 298 229 269 299 165 140 214 188 270 318 330 14 339 238 222 216 249 345 258
280 286 284 277 278 282 284 279 294 327 348 240 284 324 278 217 214 235 291 264 273 281 265 239 255 177 178 241 226 281 279 311 346 236 232 182 196 198 246 269 278 285 249 236 192 248 264
279 290 312 292 303 303 295 293 271 278 305 215 247 263 245 218 235 232 230 291 300 306 278 276 284 229 210 264 297 247 233 284 300 295 166 167 247 230 250 267 274 270 274 270 213 230 227
248 262 284 284 295 300 316 310 302 246 259 238 246 292 290 261 240 168 220 238 231 246 243 290 247 1 332 224 231 287 300 273 244 11 173 193 268 322 293 266 257 281 274 257 242 237 248
239 243 253 267 294 299 289 300 290 252 242 216 225 273 307 301 309 210 218 215 241 32 277 263 2 335 300 274 291 302 290 268 253 247 215 197 206 348 278 331 311 295 240 197 226 197 196
239 240 252 259 278 287 276 284 266 248 246 235 253 282 302 270 264 272 319 325 308 302 282 304 314 275 276 303 301 298 279 262 250 250 216 188 154 181 282 339 325 243 224 220 218 255 225
247 241 250 263 274 272 268 274 256 241 247 241 245 249 226 250 278 284 281 288 301 305 293 306 301 297 305 302 321 316 316 305 233 165 208 200 151 244 252 256 287 294 142 197 164 290 198
242 250 259 265 273 267 262 254 253 250 249 235 242 245 230 265 229 256 263 276 274 273 285 283 292 297 279 215 194 227 241 292 301 330 49 93 131 165 152 228 266 253 164 166 141 293 194
272 276 266 266 271 273 263 260 248 244 242 256 251 253 252 248 253 256 246 257 231 272 267 301 310 294 251 218 215 213 239 210 257 228 169 131 166 214 224 271 280 252 188 146 34 257 205
259 283 269 262 262 271 248 238 229 240 255 268 273 266 256 265 264 254 251 252 253 256 244 307 337 231 289 214 229 234 224 224 226 214 180 170 165 189 161 207 275 175 106 187 268 198 213
257 278 285 278 276 270 265 261 261 262 265 265 270 271 273 267 264 275 275 251 248 251 258 252 238 298 284 274 279 295 286 264 206 254 101 231 198 182 188 211 253 217 251 281 278 267 211
Height
1572 1570 1569 1568 1566 1565 1564 1562 1560 1558 1556 1553 1551 1549 1546 1544 1541 1538 1536 1534 1532 1531 1530 1529 1528 1526 1526 1525 1524 1522 1520 1517 1515 1513 1512 1510 1509 1510 1511 1510 1508 1506 1504 1502 1500 1497 1495
1573 1572 1570 1569 1568 1566 1565 1562 1560 1558 1556 1555 1552 1550 1547 1544 1540 1537 1534 1532 1530 1529 1528 1527 1526 1526 1525 1526 1523 1522 1520 1518 1516 1514 1513 1512 1512 1512 1512 1510 1510 1506 1503 1499 1496 1495 1492
1574 1573 1571 1570 1568 1567 1565 1563 1561 1558 1556 1554 1552 1549 1546 1543 1541 1537 1534 1531 1529 1528 1527 1526 1525 1524 1523 1524 1522 1521 1520 1518 1516 1515 1514 1513 1513 1513 1513 1510 1508 1504 1503 1498 1495 1493 1491
1575 1574 1572 1571 1569 1567 1566 1563 1561 1559 1557 1555 1552 1549 1546 1542 1539 1536 1534 1530 1527 1526 1525 1524 1523 1522 1522 1521 1521 1521 1520 1518 1516 1515 1514 1514 1513 1513 1513 1511 1507 1506 1505 1507 1493 1491 1489
1576 1575 1574 1571 1569 1568 1565 1564 1562 1559 1556 1555 1552 1550 1546 1542 1538 1535 1532 1529 1526 1524 1524 1523 1523 1522 1521 1521 1521 1520 1520 1518 1516 1515 1514 1513 1513 1512 1512 1512 1516 1514 1515 1508 1497 1489 1488
1577 1575 1574 1572 1570 1568 1566 1563 1561 1560 1558 1555 1552 1548 1545 1542 1538 1535 1531 1528 1525 1524 1524 1523 1522 1525 1522 1521 1519 1519 1518 1517 1516 1514 1514 1513 1513 1514 1515 1518 1529 1517 1514 1507 1503 1491 1487
1576 1575 1574 1572 1571 1568 1566 1564 1562 1559 1556 1553 1551 1548 1545 1542 1538 1535 1532 1528 1529 1526 1523 1522 1523 1522 1520 1520 1518 1518 1517 1517 1516 1515 1515 1514 1519 1522 1515 1514 1512 1512 1512 1506 1494 1489 1487
1574 1573 1573 1572 1570 1568 1565 1563 1561 1559 1556 1553 1550 1547 1544 1541 1538 1535 1533 1530 1531 1531 1523 1519 1520 1519 1519 1519 1518 1517 1517 1518 1517 1517 1515 1518 1521 1510 1510 1509 1510 1510 1509 1500 1492 1487 1486
1572 1571 1570 1569 1568 1567 1565 1563 1560 1558 1556 1553 1550 1547 1544 1540 1538 1536 1534 1534 1531 1530 1527 1520 1519 1519 1519 1520 1518 1517 1517 1517 1517 1517 1515 1517 1509 1509 1509 1507 1508 1505 1505 1500 1498 1490 1484
1569 1568 1567 1566 1564 1563 1563 1562 1560 1557 1556 1554 1550 1546 1543 1540 1540 1535 1534 1534 1533 1531 1535 1522 1519 1520 1519 1518 1518 1517 1516 1518 1517 1517 1516 1515 1508 1507 1508 1507 1507 1509 1498 1497 1495 1492 1487
1564 1563 1562 1561 1560 1559 1559 1558 1557 1557 1554 1553 1550 1546 1543 1540 1538 1536 1536 1534 1533 1533 1556 1521 1519 1518 1517 1520 1519 1517 1516 1515 1517 1517 1520 1509 1507 1506 1507 1505 1505 1504 1499 1497 1495 1492 1492
1558 1558 1559 1558 1557 1557 1556 1555 1554 1553 1552 1551 1549 1547 1544 1542 1539 1536 1534 1533 1533 1542 1544 1517 1516 1517 1517 1517 1517 1516 1516 1516 1515 1516 1515 1511 1506 1506 1504 1503 1504 1501 1497 1495 1495 1492 1493
1553 1553 1554 1554 1552 1552 1552 1551 1549 1547 1548 1547 1547 1545 1542 1540 1540 1537 1534 1534 1545 1550 1518 1517 1514 1516 1516 1516 1515 1516 1516 1517 1517 1523 1520 1509 1504 1502 1502 1502 1504 1504 1506 1512 1512 1515 1493
1550 1549 1549 1549 1549 1548 1547 1547 1546 1545 1543 1541 1541 1542 1541 1538 1534 1536 1535 1537 1545 1524 1521 1515 1514 1514 1516 1513 1514 1515 1516 1519 1515 1515 1535 1529 1516 1501 1499 1500 1508 1505 1504 1526 1517 1518 1497
1550 1549 1546 1546 1546 1545 1544 1541 1541 1540 1539 1539 1539 1539 1537 1537 1536 1534 1536 1549 1530 1524 1519 1519 1513 1514 1515 1512 1513 1514 1515 1516 1512 1513 1515 1528 1513 1497 1498 1498 1498 1505 1504 1496 1496 1495 1488
1548 1549 1548 1547 1545 1543 1542 1540 1538 1536 1535 1535 1535 1535 1536 1535 1533 1535 1536 1535 1523 1517 1516 1518 1520 1516 1517 1516 1514 1514 1512 1508 1508 1509 1510 1511 1517 1498 1495 1497 1496 1498 1498 1497 1499 1499 1487
1545 1546 1546 1545 1544 1543 1541 1539 1537 1536 1534 1533 1534 1533 1534 1534 1534 1534 1540 1535 1523 1518 1516 1517 1519 1518 1517 1517 1515 1514 1510 1506 1505 1507 1509 1510 1515 1504 1497 1497 1495 1500 1501 1495 1494 1490 1485
1542 1543 1543 1544 1544 1541 1540 1538 1537 1534 1535 1534 1535 1535 1533 1532 1538 1535 1534 1530 1525 1518 1517 1515 1516 1517 1517 1516 1516 1513 1511 1507 1503 1504 1508 1508 1513 1514 1495 1487 1487 1488 1490 1492 1487 1492 1490
1540 1541 1540 1541 1541 1540 1537 1536 1536 1534 1533 1534 1534 1531 1530 1531 1535 1535 1530 1527 1526 1521 1518 1517 1516 1515 1515 1515 1516 1513 1509 1504 1503 1505 1506 1507 1513 1518 1493 1488 1486 1487 1486 1485 1486 1486 1478
1538 1538 1538 1537 1537 1537 1536 1534 1534 1534 1534 1535 1535 1534 1530 1530 1528 1529 1529 1527 1525 1520 1519 1517 1515 1514 1515 1513 1513 1511 1508 1504 1504 1503 1503 1505 1509 1507 1504 1488 1489 1486 1484 1483 1485 1493 1474
1535 1535 1535 1536 1536 1536 1533 1532 1532 1532 1531 1533 1536 1532 1528 1528 1530 1529 1529 1526 1524 1524 1519 1516 1514 1514 1515 1514 1512 1512 1507 1505 1501 1499 1502 1504 1507 1504 1495 1489 1486 1483 1479 1474 1481 1472 1475
1533 1532 1531 1532 1533 1533 1533 1533 1532 1531 1529 1529 1531 1533 1529 1527 1524 1527 1528 1526 1522 1520 1521 1516 1516 1517 1516 1517 1513 1512 1509 1508 1505 1501 1502 1503 1503 1499 1485 1480 1480 1476 1465 1465 1467 1466 1466
1528 1529 1528 1527 1529 1529 1528 1528 1527 1529 1529 1527 1527 1530 1531 1527 1526 1523 1520 1521 1519 1520 1516 1515 1518 1518 1516 1513 1509 1507 1505 1503 1499 1498 1500 1503 1503 1502 1487 1482 1475 1466 1454 1452 1452 1454 1451
1525 1526 1526 1523 1522 1524 1525 1526 1524 1524 1526 1527 1528 1528 1531 1527 1525 1526 1524 1522 1521 1520 1521 1517 1516 1517 1512 1509 1505 1500 1495 1491 1488 1485 1490 1495 1500 1502 1497 1485 1476 1446 1445 1446 1447 1444 1443
1522 1523 1522 1522 1520 1520 1521 1522 1523 1522 1522 1523 1524 1525 1527 1525 1524 1522 1524 1524 1520 1517 1517 1514 1513 1511 1510 1507 1504 1500 1494 1486 1479 1481 1483 1485 1493 1497 1501 1499 1467 1441 1443 1445 1443 1439 1434
1519 1519 1519 1519 1518 1517 1516 1518 1519 1520 1518 1518 1523 1524 1521 1522 1517 1514 1518 1519 1520 1517 1514 1510 1508 1506 1505 1504 1505 1498 1497 1485 1481 1479 1482 1484 1487 1494 1501 1492 1472 1440 1439 1441 1441 1445 1432
1517 1516 1514 1514 1514 1515 1514 1515 1516 1517 1517 1517 1519 1521 1521 1515 1513 1515 1513 1516 1515 1515 1512 1507 1505 1502 1501 1502 1502 1500 1490 1485 1485 1478 1484 1488 1492 1488 1492 1492 1469 1441 1439 1440 1442 1440 1431
1515 1514 1514 1512 1511 1513 1512 1512 1514 1514 1513 1512 1513 1517 1516 1511 1507 1509 1509 1510 1510 1512 1512 1507 1507 1500 1499 1500 1496 1490 1486 1482 1477 1469 1473 1473 1482 1488 1491 1493 1478 1438 1442 1442 1434 1429 1429
1512 1512 1512 1511 1511 1510 1511 1510 1511 1510 1511 1510 1509 1513 1511 1508 1501 1500 1501 1500 1503 1501 1506 1506 1504 1499 1497 1496 1493 1490 1481 1481 1473 1469 1462 1467 1454 1462 1462 1453 1437 1436 1434 1433 1432 1432 1427